Regional Weather Roundup
Issued by NWS State College, PA

Home | Current Version | Previous Version | Graphics & Text | Print | Product List | Glossary Off
Versions: 1 2 3 4 5 6 7 8 9 10 11 12 13 14 15 16 17 18 19 20 21 22 23 24 25 26 27 28 29 30 31 32 33 34 35 36 37 38 39 40 41 42 43 44 45 46 47 48 49 50

000
ASUS41 KCTP 291210
RWRCTP

REGIONAL WEATHER ROUNDUP
NATIONAL WEATHER SERVICE STATE COLLEGE PA
800 AM EDT SUN MAR 29 2015

Note: "fair" indicates few or no clouds below 12,000 feet with no
significant weather and/or obstructions to visibility.

* = STATION THAT DOES NOT REPORT PRECIPITATION /E.G. RAIN...SNOW...ETC/
    THUNDER OR FOG.

PAZ002>004-007>009-013>016-020>023-029>032-291300-
WESTERN PENNSYLVANIA

CITY           SKY/WX    TMP DP  RH WIND       PRES   REMARKS
ERIE           CLEAR     20  12  71 S9        30.31S WCI   9
MEADVILLE      CLEAR     17  10  74 S7        30.27S WCI   8
FRANKLIN*      CLEAR     16   9  73 SW6       30.30R WCI   7
NEW CASTLE     FAIR      16  11  80 CALM      30.35R
BEAVER COUNTY  NOT AVBL
BUTLER*        CLEAR     16  10  79 SW3       30.34R
PITTSBURGH INT CLEAR     17  10  74 CALM      30.34R
PITTSBURGH     CLEAR     19   6  57 SW6       30.34R WCI  11
INDIANA*       CLEAR     16  10  79 SW5       30.36R WCI   9
LATROBE        CLEAR     16   9  73 SW7       30.37R WCI   6
WASHINGTON CO* CLEAR     12   9  85 CALM      30.36R
$$

PAZ004>006-010>012-017>019-024>028-033>037-041-042-045-046-049>053-291300-
CENTRAL PENNSYLVANIA

CITY           SKY/WX    TMP DP  RH WIND       PRES   REMARKS
BRADFORD       CLEAR     11   7  84 CALM      30.21R
DUBOIS         CLEAR     14   9  80 SW7       30.25R WCI   4
CLEARFIELD     SUNNY     14   8  77 SW6       30.29R WCI   5
JOHNSTOWN      CLEAR     15   7  70 W7        30.23R WCI   5
ALTOONA        SUNNY     18   8  65 VRB5      30.30R WCI  11
STATE COLLEGE  SUNNY     18  10  73 CALM      30.30R
WILLIAMSPORT   FAIR      21  11  65 W10       30.32R WCI  10
SELINSGROVE    SUNNY     23  10  57 W5        30.33R
FT INDIANTOWN  SUNNY     24   6  47 VRB5      30.31R
CAPITAL CITY   SUNNY     24   9  52 W6        30.34R
HARRISBURG     SUNNY     25  11  55 W14       30.33R WCI  13
YORK           SUNNY     23  11  60 VRB5      30.33R
$$

PAZ038>040-043-044-047-048-054-055-060>062-067>071-291300-
EASTERN PENNSYLVANIA

CITY           SKY/WX    TMP DP  RH WIND       PRES   REMARKS
SCRANTON       SUNNY     21   7  54 VRB3      30.25R
MOUNT POCONO   FAIR      16   8  71 NW14      30.15R WCI   2
ALLENTOWN      SUNNY     24   9  52 NW6       30.29R
QUAKERTOWN*    SUNNY     23   9  54 NW7       30.28R WCI  15
READING        SUNNY     25   7  46 W6        30.31R
LANCASTER      SUNNY     24  10  55 NW9       30.32R WCI  14
COATESVILLE    SUNNY     23   9  54 NW12      30.29R WCI  12
POTTSTOWN      SUNNY     24   7  48 W9        30.31R WCI  14
BLUE BELL      SUNNY     28  10  47 NW6       30.28R
DOYLESTOWN     SUNNY     23   9  55 NW10      30.27R WCI  12
WILLOW GROVE   NOT AVBL
NORTH PHILA    SUNNY     28   7  41 N10       30.31R
PHILADELPHIA   MOSUNNY   28   6  39 NW13      30.31R
$$



USA.gov is the U.S. government's official web portal to all federal, state and local government web resources and services.